Regional Weather Roundup
Issued by NWS

Home | Current Version | Previous Version | Text Only | Print | Product List | Glossary Off
Versions: 1 2 3 4 5 6 7 8 9 10 11 12 13 14 15 16 17 18 19 20 21 22 23 24 25 26 27 28 29 30 31 32 33 34 35 36 37 38 39 40 41 42 43 44 45 46 47 48 49 50

000
ASUS43 KIND 212059
RWRIN

WEATHER ROUNDUP FOR INDIANA
NATIONAL WEATHER SERVICE INDIANAPOLIS IN
500 PM EDT TUE OCT 21 2014

NOTE: "FAIR" INDICATES FEW OR NO CLOUDS BELOW 12,000 FEET WITH NO
SIGNIFICANT WEATHER AND/OR OBSTRUCTIONS TO VISIBILITY.

* - STATION DOES NOT REPORT WEATHER SUCH AS PRECIPITATION OR FOG.

+ - STATION NOT QUALITY CONTROLLED BY THE NATIONAL WEATHER SERVICE.
    USE DATA WITH CAUTION...ESPECIALLY DEWPOINT AND RELATIVE
    HUMIDITY OBSERVATIONS.

INZ001>003-010>013-019-020-212200-
NORTHWEST INDIANA

CITY           SKY/WX    TMP DP  RH WIND       PRES   REMARKS
VALPARAISO     NOT AVBL

$$

LMZ046-743>745-212200-
SOUTHERN LAKE MICHIGAN

STATION/POSITION TIME  TEMP WIND        PRES
                       AIR  DIR/SP/G
                 (UTC) (F)  (DEG/KT/KT) (MB)
MICHIGAN CITY    2000   50  350/ 23/ 25   N/A

$$

INZ004-005-014>016-021>024-212200-
NORTH CENTRAL INDIANA

CITY           SKY/WX    TMP DP  RH WIND       PRES   REMARKS
ELKHART        CLOUDY    50  37  62 N9        30.15R
GOSHEN         CLOUDY    50  41  71 N13       30.14R
SOUTH BEND     CLOUDY    50  40  68 N12       30.16R
WARSAW +       CLOUDY    50  41  71 N8        30.13R

$$

INZ006>009-017-018-025>027-212200-
NORTHEAST INDIANA

CITY           SKY/WX    TMP DP  RH WIND       PRES   REMARKS
ANGOLA *+      CLOUDY    46  32  57 N7        30.12R
FORT WAYNE     CLOUDY    50  41  71 N13       30.12R

$$

INZ028-029-035-036-043>045-051>053-212200-
WEST CENTRAL INDIANA

CITY           SKY/WX    TMP DP  RH WIND       PRES   REMARKS
GREENCASTLE +  CLOUDY    54  41  62 N9G16     30.12R
LAFAYETTE      CLOUDY    53  43  68 N9G18     30.13R
TERRE HAUTE    CLOUDY    57  38  48 NE12G18   30.13R

$$

INZ030>032-037>040-046>048-054>057-064-065-212200-
CENTRAL INDIANA

CITY           SKY/WX    TMP DP  RH WIND       PRES   REMARKS
CP ATTERBURY + CLOUDY    55  41  58 N9        30.11R
COLUMBUS       CLOUDY    55  45  67 NW9       30.10R
FRANKFORT +    CLOUDY    55  45  68 NW10      30.13S
INDIANAPOLIS   PTSUNNY   55  41  59 NW13      30.10R
-EAGLE CREEK   CLOUDY    54  42  64 NW10G20   30.10R
KOKOMO *+      CLOUDY    54  39  58 N12       30.12R
MT COMFORT *+  CLOUDY    54  34  47 N9        30.10S
SHELBYVILLE    CLOUDY    57  41  55 N16       30.09R

$$

INZ033-034-041-042-049-050-058-059-212200-
EAST CENTRAL INDIANA

CITY           SKY/WX    TMP DP  RH WIND       PRES   REMARKS
MUNCIE         MOSUNNY   56  42  59 NE14G22   30.10R

$$

INZ060-061-067>069-081>083-085>088-212200-
SOUTHWEST INDIANA

CITY           SKY/WX    TMP DP  RH WIND       PRES   REMARKS
EVANSVILLE     MOSUNNY   63  42  46 N13G20    30.10R
HUNTINGBURG *+ MOSUNNY   57  41  54 N7        30.10S

$$

INZ062-063-066-070>080-084-089>092-212200-
SOUTH CENTRAL AND SOUTHEAST INDIANA

CITY           SKY/WX    TMP DP  RH WIND       PRES   REMARKS
BLOOMINGTON    PTSUNNY   57  40  52 N10G17    30.11R
SEYMOUR +      CLOUDY    59  41  51 N9        30.10R

$$




USA.gov is the U.S. government's official web portal to all federal, state and local government web resources and services.